EZY89VK EGAA-EGGP

Flight info

Callsign EZY89VK
Flight time 0h 34m
Altitude 25000
Route LISBO L603 PEPOD Q38 SOSIM L28 PENIL
Aircraft A320/M-SDE2E3FGHIJ1RWXYZ/LB1

Departure

Time 2026-04-29 13:05
Airport Belfast International Airport (EGAA)

Arrival

Time 2026-04-29 13:39
Airport Liverpool John Lennon Airport (EGGP)
Time Latitude Longitude Altitude Speed Heading
2026-04-29 12:36 54.66109 -6.21356 275 ft 0 kts 245°
2026-04-29 12:55 54.66113 -6.21342 272 ft 4 kts 245°
2026-04-29 12:55 54.66122 -6.21307 272 ft 3 kts 243°
2026-04-29 12:56 54.66136 -6.21279 272 ft 4 kts 181°
2026-04-29 12:56 54.66161 -6.21290 272 ft 3 kts 155°
2026-04-29 12:56 54.66151 -6.21282 272 ft 4 kts 155°
2026-04-29 12:56 54.66127 -6.21263 272 ft 2 kts 155°
2026-04-29 12:57 54.66125 -6.21261 272 ft 1 kts 155°
2026-04-29 12:59 54.66120 -6.21257 272 ft 3 kts 155°
2026-04-29 12:59 54.66083 -6.21227 272 ft 8 kts 155°
2026-04-29 13:00 54.66029 -6.21229 273 ft 8 kts 228°
2026-04-29 13:00 54.65998 -6.21339 272 ft 11 kts 245°
2026-04-29 13:00 54.65964 -6.21466 272 ft 12 kts 245°
2026-04-29 13:00 54.65928 -6.21601 272 ft 12 kts 244°
2026-04-29 13:01 54.65891 -6.21734 272 ft 12 kts 244°
2026-04-29 13:01 54.65855 -6.21866 272 ft 12 kts 245°
2026-04-29 13:01 54.65804 -6.22055 274 ft 20 kts 246°
2026-04-29 13:01 54.65769 -6.22263 272 ft 18 kts 262°
2026-04-29 13:02 54.65755 -6.22472 272 ft 17 kts 265°
2026-04-29 13:02 54.65743 -6.22677 272 ft 17 kts 264°
2026-04-29 13:02 54.65714 -6.22870 273 ft 16 kts 243°
2026-04-29 13:02 54.65651 -6.23030 273 ft 16 kts 234°
2026-04-29 13:03 54.65589 -6.23183 272 ft 15 kts 234°
2026-04-29 13:03 54.65522 -6.23322 272 ft 15 kts 215°
2026-04-29 13:03 54.65431 -6.23391 272 ft 14 kts 202°
2026-04-29 13:03 54.65340 -6.23378 275 ft 15 kts 158°
2026-04-29 13:04 54.65284 -6.23337 272 ft 9 kts 149°
2026-04-29 13:04 54.65297 -6.23259 274 ft 10 kts 64°
2026-04-29 13:04 54.65493 -6.22531 272 ft 102 kts 65°
2026-04-29 13:04 54.65884 -6.21096 473 ft 146 kts 68°
2026-04-29 13:05 54.66313 -6.19511 1376 ft 146 kts 68°
2026-04-29 13:05 54.66611 -6.18395 1868 ft 158 kts 70°
2026-04-29 13:05 54.67080 -6.16534 2424 ft 180 kts 78°
2026-04-29 13:05 54.67015 -6.14334 2990 ft 200 kts 115°
2026-04-29 13:06 54.66073 -6.12421 3645 ft 226 kts 146°
2026-04-29 13:06 54.64507 -6.11655 4571 ft 245 kts 173°
2026-04-29 13:06 54.62772 -6.11709 5684 ft 253 kts 178°
2026-04-29 13:06 54.60989 -6.11876 6797 ft 258 kts 179°
2026-04-29 13:07 54.59196 -6.11746 7819 ft 259 kts 162°
2026-04-29 13:07 54.57589 -6.10414 8826 ft 258 kts 138°
2026-04-29 13:07 54.56304 -6.08239 9904 ft 261 kts 132°
2026-04-29 13:07 54.55029 -6.05964 10809 ft 271 kts 131°
2026-04-29 13:08 54.53666 -6.03530 11369 ft 290 kts 132°
2026-04-29 13:08 54.52243 -6.01001 12258 ft 297 kts 132°
2026-04-29 13:08 54.50796 -5.98439 13228 ft 300 kts 131°
2026-04-29 13:08 54.49331 -5.95847 14213 ft 304 kts 131°
2026-04-29 13:09 54.47847 -5.93229 15056 ft 307 kts 131°
2026-04-29 13:09 54.46347 -5.90586 15893 ft 311 kts 131°
2026-04-29 13:09 54.44851 -5.87942 16701 ft 315 kts 131°
2026-04-29 13:09 54.43314 -5.85230 17519 ft 319 kts 131°
2026-04-29 13:10 54.41850 -5.82343 18322 ft 322 kts 126°
2026-04-29 13:10 54.40459 -5.79309 19064 ft 326 kts 125°
2026-04-29 13:10 54.39085 -5.76197 19837 ft 326 kts 124°
2026-04-29 13:10 54.37726 -5.73087 20705 ft 325 kts 124°
2026-04-29 13:11 54.36373 -5.69997 21578 ft 324 kts 124°
2026-04-29 13:11 54.35015 -5.66916 22425 ft 323 kts 124°
2026-04-29 13:11 54.33656 -5.63858 23284 ft 322 kts 124°
2026-04-29 13:11 54.32294 -5.60815 24119 ft 322 kts 124°
2026-04-29 13:12 54.30930 -5.57780 24780 ft 323 kts 124°
2026-04-29 13:12 54.29562 -5.54737 25010 ft 321 kts 124°
2026-04-29 13:12 54.28198 -5.51717 25247 ft 320 kts 124°
2026-04-29 13:12 54.26835 -5.48713 25379 ft 319 kts 124°
2026-04-29 13:13 54.25471 -5.45718 25413 ft 319 kts 124°
2026-04-29 13:13 54.24107 -5.42731 25413 ft 318 kts 125°
2026-04-29 13:13 54.22745 -5.39751 25414 ft 318 kts 125°
2026-04-29 13:13 54.21384 -5.36773 25409 ft 318 kts 125°
2026-04-29 13:14 54.20020 -5.33793 25409 ft 318 kts 124°
2026-04-29 13:14 54.18659 -5.30817 25413 ft 318 kts 124°
2026-04-29 13:14 54.17296 -5.27839 25405 ft 318 kts 125°
2026-04-29 13:14 54.15933 -5.24865 25403 ft 318 kts 125°
2026-04-29 13:15 54.14572 -5.21894 25403 ft 318 kts 125°
2026-04-29 13:15 54.13228 -5.18967 25428 ft 318 kts 125°
2026-04-29 13:15 54.11865 -5.16007 25425 ft 317 kts 125°
2026-04-29 13:15 54.10556 -5.12994 25426 ft 314 kts 118°
2026-04-29 13:16 54.09497 -5.09742 25425 ft 314 kts 116°
2026-04-29 13:16 54.08452 -5.06484 25415 ft 314 kts 116°
2026-04-29 13:16 54.07407 -5.03221 25411 ft 313 kts 116°
2026-04-29 13:16 54.06364 -4.99962 25410 ft 313 kts 116°
2026-04-29 13:17 54.05321 -4.96708 25407 ft 313 kts 116°
2026-04-29 13:17 54.04273 -4.93446 25406 ft 313 kts 116°
2026-04-29 13:17 54.03226 -4.90195 25402 ft 313 kts 116°
2026-04-29 13:17 54.02176 -4.86946 25405 ft 313 kts 116°
2026-04-29 13:18 54.01125 -4.83706 25397 ft 313 kts 117°
2026-04-29 13:18 54.00067 -4.80469 25396 ft 313 kts 117°
2026-04-29 13:18 53.99000 -4.77240 25398 ft 313 kts 117°
2026-04-29 13:18 53.97932 -4.74016 25399 ft 313 kts 117°
2026-04-29 13:19 53.96863 -4.70796 25378 ft 313 kts 117°
2026-04-29 13:19 53.95791 -4.67569 25378 ft 313 kts 117°
2026-04-29 13:19 53.94734 -4.64392 25378 ft 314 kts 117°
2026-04-29 13:19 53.93658 -4.61163 25370 ft 314 kts 117°
2026-04-29 13:20 53.92583 -4.57935 25310 ft 318 kts 117°
2026-04-29 13:20 53.91487 -4.54640 25064 ft 321 kts 117°
2026-04-29 13:20 53.90387 -4.51344 24854 ft 320 kts 117°
2026-04-29 13:20 53.89298 -4.48089 24561 ft 314 kts 117°
2026-04-29 13:21 53.88222 -4.44881 24098 ft 312 kts 117°
2026-04-29 13:21 53.87152 -4.41688 23570 ft 311 kts 117°
2026-04-29 13:21 53.86089 -4.38519 23083 ft 308 kts 117°
2026-04-29 13:21 53.85036 -4.35381 22617 ft 305 kts 117°
2026-04-29 13:22 53.83990 -4.32263 22162 ft 303 kts 117°
2026-04-29 13:22 53.82952 -4.29181 21705 ft 300 kts 117°
2026-04-29 13:22 53.81919 -4.26115 21262 ft 298 kts 117°
2026-04-29 13:22 53.80894 -4.23074 20822 ft 297 kts 117°
2026-04-29 13:23 53.79873 -4.20050 20384 ft 295 kts 117°
2026-04-29 13:23 53.78854 -4.17034 19934 ft 294 kts 118°
2026-04-29 13:23 53.77837 -4.14037 19510 ft 293 kts 118°
2026-04-29 13:23 53.76825 -4.11056 19074 ft 292 kts 118°
2026-04-29 13:24 53.75816 -4.08081 18642 ft 291 kts 118°
2026-04-29 13:24 53.74800 -4.05181 18249 ft 288 kts 120°
2026-04-29 13:24 53.73722 -4.02379 17647 ft 282 kts 122°
2026-04-29 13:24 53.72620 -3.99659 16927 ft 280 kts 122°
2026-04-29 13:25 53.71513 -3.96970 16223 ft 277 kts 123°
2026-04-29 13:25 53.69328 -3.91640 15296 ft 274 kts 123°
2026-04-29 13:25 53.68254 -3.88999 14967 ft 272 kts 122°
2026-04-29 13:26 53.67189 -3.86370 14621 ft 270 kts 123°
2026-04-29 13:26 53.66132 -3.83756 14283 ft 269 kts 123°
2026-04-29 13:26 53.65081 -3.81154 13923 ft 268 kts 123°
2026-04-29 13:26 53.64034 -3.78568 13570 ft 266 kts 123°
2026-04-29 13:27 53.62995 -3.76003 13223 ft 264 kts 123°
2026-04-29 13:27 53.61965 -3.73465 12897 ft 261 kts 123°
2026-04-29 13:27 53.60942 -3.70948 12558 ft 259 kts 123°
2026-04-29 13:27 53.59927 -3.68450 12218 ft 258 kts 123°
2026-04-29 13:28 53.58920 -3.65975 11875 ft 256 kts 123°
2026-04-29 13:28 53.57917 -3.63514 11538 ft 254 kts 123°
2026-04-29 13:28 53.56923 -3.61070 11199 ft 253 kts 123°
2026-04-29 13:28 53.55934 -3.58636 10854 ft 251 kts 123°
2026-04-29 13:29 53.54952 -3.56220 10495 ft 250 kts 123°
2026-04-29 13:29 53.53955 -3.53829 10019 ft 253 kts 127°
2026-04-29 13:29 53.52814 -3.51584 9465 ft 257 kts 129°
2026-04-29 13:29 53.51625 -3.49343 9025 ft 257 kts 130°
2026-04-29 13:30 53.50441 -3.47112 8601 ft 255 kts 130°
2026-04-29 13:30 53.49268 -3.44898 8172 ft 253 kts 130°
2026-04-29 13:30 53.48105 -3.42699 7750 ft 251 kts 130°
2026-04-29 13:30 53.46950 -3.40514 7329 ft 249 kts 130°
2026-04-29 13:31 53.45807 -3.38345 6899 ft 247 kts 130°
2026-04-29 13:31 53.44670 -3.36184 6460 ft 245 kts 130°
2026-04-29 13:31 53.43546 -3.34048 6022 ft 242 kts 130°
2026-04-29 13:31 53.42437 -3.31952 5608 ft 239 kts 130°
2026-04-29 13:32 53.41342 -3.29888 5187 ft 235 kts 130°
2026-04-29 13:32 53.40261 -3.27852 4743 ft 232 kts 130°
2026-04-29 13:32 53.39201 -3.25881 4495 ft 223 kts 130°
2026-04-29 13:32 53.38170 -3.24008 4237 ft 215 kts 130°
2026-04-29 13:33 53.37164 -3.22210 3981 ft 208 kts 130°
2026-04-29 13:33 53.36187 -3.20484 3747 ft 200 kts 130°
2026-04-29 13:33 53.35246 -3.18846 3618 ft 189 kts 130°
2026-04-29 13:33 53.34363 -3.17334 3493 ft 180 kts 130°
2026-04-29 13:34 53.33501 -3.15875 3358 ft 172 kts 130°
2026-04-29 13:34 53.32689 -3.14467 3253 ft 162 kts 123°
2026-04-29 13:34 53.32205 -3.12889 3157 ft 147 kts 104°
2026-04-29 13:34 53.32118 -3.11226 2987 ft 143 kts 88°
2026-04-29 13:35 53.32198 -3.09588 2810 ft 140 kts 87°
2026-04-29 13:35 53.32277 -3.07972 2629 ft 139 kts 87°
2026-04-29 13:35 53.32355 -3.06351 2430 ft 141 kts 87°
2026-04-29 13:35 53.32433 -3.04724 2241 ft 141 kts 87°
2026-04-29 13:36 53.32511 -3.03094 2052 ft 140 kts 86°
2026-04-29 13:36 53.32588 -3.01484 1859 ft 138 kts 86°
2026-04-29 13:36 53.32664 -2.99891 1665 ft 136 kts 86°
2026-04-29 13:36 53.32740 -2.98305 1488 ft 137 kts 85°
2026-04-29 13:37 53.32815 -2.96714 1295 ft 134 kts 87°
2026-04-29 13:37 53.32886 -2.95225 1121 ft 125 kts 86°
2026-04-29 13:37 53.32952 -2.93804 953 ft 121 kts 86°
2026-04-29 13:37 53.33019 -2.92392 786 ft 121 kts 88°
2026-04-29 13:38 53.33084 -2.90970 598 ft 126 kts 86°
2026-04-29 13:38 53.33149 -2.89562 473 ft 120 kts 85°
2026-04-29 13:38 53.33214 -2.88165 281 ft 122 kts 86°
2026-04-29 13:38 53.33285 -2.86771 124 ft 119 kts 90°
2026-04-29 13:39 53.33341 -2.85482 82 ft 94 kts 85°
2026-04-29 13:39 53.33374 -2.84763 77 ft 35 kts 83°
2026-04-29 13:39 53.33440 -2.84469 85 ft 24 kts 59°
2026-04-29 13:39 53.33521 -2.84249 72 ft 13 kts 51°
2026-04-29 13:40 53.33560 -2.84301 77 ft 13 kts 267°
2026-04-29 13:40 53.33551 -2.84494 78 ft 17 kts 265°
2026-04-29 13:40 53.33542 -2.84684 80 ft 16 kts 266°
2026-04-29 13:40 53.33532 -2.84893 86 ft 19 kts 265°
2026-04-29 13:41 53.33522 -2.85119 86 ft 19 kts 265°
2026-04-29 13:41 53.33511 -2.85335 84 ft 19 kts 266°
2026-04-29 13:41 53.33514 -2.85499 89 ft 9 kts 309°
2026-04-29 13:41 53.33576 -2.85510 85 ft 9 kts 358°
2026-04-29 13:42 53.33638 -2.85510 89 ft 8 kts 356°
2026-04-29 13:42 53.33660 -2.85513 89 ft 1 kts 355°
2026-04-29 13:42 53.33666 -2.85514 89 ft 0 kts 356°